HVN655 VVTS-WSSS

Flight info

Callsign HVN655
Flight time N/A
Altitude 36000
Route NIXIV5A NIXIV L643 CN L642 ESPOB Q801 ESBUM Q802 ELALO ELALO1A
Aircraft B772/H-SDE2E3FGHIJ5LORVWXY/LB1D1

Departure

Time 2026-05-05 09:08
Airport Tan Son Nhat International Airport (VVTS)

Arrival

Time N/A
Airport Singapore Changi Airport (WSSS)
Time Latitude Longitude Altitude Speed Heading
2026-05-05 08:58 10.81778 106.66439 47 ft 0 kts 159°
2026-05-05 08:59 10.81780 106.66438 47 ft 0 kts 159°
2026-05-05 09:00 10.81794 106.66433 47 ft 1 kts 156°
2026-05-05 09:00 10.81812 106.66424 47 ft 2 kts 152°
2026-05-05 09:00 10.81826 106.66416 47 ft 2 kts 146°
2026-05-05 09:00 10.81839 106.66407 47 ft 2 kts 139°
2026-05-05 09:01 10.81851 106.66396 47 ft 2 kts 126°
2026-05-05 09:01 10.81858 106.66384 47 ft 2 kts 108°
2026-05-05 09:01 10.81861 106.66372 47 ft 2 kts 80°
2026-05-05 09:01 10.81857 106.66358 47 ft 1 kts 69°
2026-05-05 09:02 10.81852 106.66344 47 ft 2 kts 69°
2026-05-05 09:02 10.81851 106.66340 47 ft 0 kts 69°
2026-05-05 09:03 10.81862 106.66370 47 ft 9 kts 69°
2026-05-05 09:04 10.81883 106.66427 47 ft 8 kts 69°
2026-05-05 09:04 10.81904 106.66482 47 ft 8 kts 69°
2026-05-05 09:04 10.81933 106.66559 47 ft 14 kts 69°
2026-05-05 09:04 10.81971 106.66635 47 ft 8 kts 65°
2026-05-05 09:05 10.81984 106.66690 47 ft 8 kts 73°
2026-05-05 09:05 10.82018 106.66786 47 ft 24 kts 70°
2026-05-05 09:05 10.82097 106.66922 47 ft 24 kts 36°
2026-05-05 09:05 10.82225 106.67016 47 ft 22 kts 19°
2026-05-05 09:06 10.82314 106.66966 47 ft 13 kts 304°
2026-05-05 09:06 10.82345 106.66939 47 ft 3 kts 336°
2026-05-05 09:06 10.82356 106.66927 47 ft 2 kts 293°
2026-05-05 09:06 10.82356 106.66914 47 ft 2 kts 257°
2026-05-05 09:07 10.82352 106.66903 47 ft 3 kts 248°
2026-05-05 09:07 10.82284 106.66741 47 ft 60 kts 245°
2026-05-05 09:07 10.82048 106.66150 48 ft 116 kts 251°
2026-05-05 09:07 10.81713 106.65180 214 ft 163 kts 248°
2026-05-05 09:08 10.81362 106.64097 1146 ft 163 kts 248°
2026-05-05 09:08 10.80976 106.63013 2132 ft 163 kts 246°
2026-05-05 09:08 10.80545 106.61910 2546 ft 171 kts 245°
2026-05-05 09:08 10.80077 106.60743 2752 ft 191 kts 245°
2026-05-05 09:09 10.79554 106.59417 2945 ft 214 kts 246°
2026-05-05 09:09 10.78971 106.57916 3117 ft 238 kts 247°
2026-05-05 09:09 10.78558 106.56853 3335 ft 249 kts 247°
2026-05-05 09:09 10.78322 106.56305 3433 ft 256 kts 244°
2026-05-05 09:10 10.76950 106.54715 3781 ft 270 kts 213°
2026-05-05 09:10 10.75197 106.54046 4353 ft 272 kts 188°
2026-05-05 09:10 10.73299 106.53986 4961 ft 275 kts 175°
2026-05-05 09:10 10.71394 106.54211 5616 ft 278 kts 169°
2026-05-05 09:11 10.69490 106.54543 6321 ft 282 kts 167°
2026-05-05 09:11 10.67554 106.54912 7042 ft 285 kts 167°
2026-05-05 09:11 10.65584 106.55265 7739 ft 289 kts 168°
2026-05-05 09:11 10.63585 106.55600 8454 ft 293 kts 168°
2026-05-05 09:12 10.61554 106.55925 9164 ft 296 kts 168°
2026-05-05 09:12 10.59510 106.56248 9889 ft 299 kts 168°
2026-05-05 09:12 10.57408 106.56578 10341 ft 313 kts 169°
2026-05-05 09:12 10.55192 106.56925 10749 ft 328 kts 169°
2026-05-05 09:13 10.52914 106.57281 11272 ft 340 kts 169°
2026-05-05 09:13 10.50536 106.57654 11976 ft 350 kts 169°
2026-05-05 09:13 10.48104 106.58035 12860 ft 356 kts 169°
2026-05-05 09:13 10.45711 106.58410 13737 ft 362 kts 170°
2026-05-05 09:14 10.43318 106.58784 14599 ft 366 kts 169°
2026-05-05 09:14 10.40761 106.59185 15526 ft 370 kts 169°
2026-05-05 09:14 10.38188 106.59586 16416 ft 374 kts 170°
2026-05-05 09:14 10.35566 106.59992 17278 ft 378 kts 170°
2026-05-05 09:15 10.32959 106.60396 18097 ft 382 kts 170°
2026-05-05 09:15 10.30311 106.60807 18803 ft 388 kts 170°
2026-05-05 09:15 10.27650 106.61219 19491 ft 393 kts 170°
2026-05-05 09:15 10.24927 106.61641 20164 ft 398 kts 170°
2026-05-05 09:16 10.22164 106.62073 20816 ft 403 kts 170°
2026-05-05 09:16 10.19406 106.62655 21430 ft 408 kts 165°
2026-05-05 09:16 10.16652 106.63398 21994 ft 412 kts 166°
2026-05-05 09:16 10.13806 106.63883 22535 ft 418 kts 173°
2026-05-05 09:17 10.10885 106.64108 23114 ft 422 kts 176°
2026-05-05 09:17 10.07937 106.64199 23673 ft 427 kts 179°
2026-05-05 09:17 10.04952 106.64194 24268 ft 432 kts 180°
2026-05-05 09:17 10.01967 106.64145 24923 ft 436 kts 181°
2026-05-05 09:18 9.98917 106.64094 25550 ft 440 kts 180°
2026-05-05 09:18 9.95841 106.64050 26087 ft 444 kts 180°
2026-05-05 09:18 9.92726 106.64009 26572 ft 448 kts 180°
2026-05-05 09:18 9.89602 106.63971 27060 ft 452 kts 180°
2026-05-05 09:19 9.86445 106.63933 27532 ft 456 kts 180°
2026-05-05 09:19 9.83245 106.63895 28016 ft 459 kts 180°
2026-05-05 09:19 9.80089 106.63859 28522 ft 461 kts 180°
2026-05-05 09:19 9.78020 106.63835 28811 ft 464 kts 180°
2026-05-05 09:20 9.74638 106.63796 29277 ft 467 kts 180°
2026-05-05 09:20 9.72022 106.63765 29632 ft 469 kts 180°
2026-05-05 09:20 9.68741 106.63727 29987 ft 472 kts 180°
2026-05-05 09:20 9.65439 106.63689 30364 ft 475 kts 180°
2026-05-05 09:21 9.62170 106.63652 30782 ft 476 kts 180°
2026-05-05 09:21 9.58853 106.63614 31189 ft 478 kts 180°
2026-05-05 09:21 9.55509 106.63575 31561 ft 480 kts 180°
2026-05-05 09:21 9.52150 106.63536 31889 ft 483 kts 180°
2026-05-05 09:22 9.48783 106.63498 32234 ft 484 kts 180°
2026-05-05 09:22 9.45408 106.63459 32619 ft 485 kts 180°
2026-05-05 09:22 9.42019 106.63420 32993 ft 486 kts 180°
2026-05-05 09:22 9.38678 106.63381 33359 ft 486 kts 180°
2026-05-05 09:23 9.35297 106.63343 33808 ft 482 kts 180°
2026-05-05 09:23 9.31958 106.63305 34262 ft 480 kts 180°
2026-05-05 09:23 9.28607 106.63267 34571 ft 481 kts 180°
2026-05-05 09:23 9.25264 106.63230 34907 ft 482 kts 180°
2026-05-05 09:24 9.21908 106.63192 35264 ft 481 kts 180°
2026-05-05 09:24 9.18559 106.63154 35619 ft 481 kts 180°
2026-05-05 09:24 9.15235 106.63116 35778 ft 482 kts 180°
2026-05-05 09:25 9.08513 106.63040 35776 ft 482 kts 180°
2026-05-05 09:25 9.01864 106.62965 35775 ft 481 kts 180°
2026-05-05 09:26 8.95140 106.62889 35776 ft 482 kts 180°
2026-05-05 09:26 8.88729 106.62816 35775 ft 482 kts 180°
2026-05-05 09:27 8.81923 106.62739 35775 ft 482 kts 180°
2026-05-05 09:27 8.75215 106.62530 35775 ft 482 kts 186°
2026-05-05 09:28 8.68812 106.60586 35777 ft 484 kts 206°
2026-05-05 09:28 8.63123 106.56897 35776 ft 486 kts 214°
2026-05-05 09:29 8.57546 106.53042 35775 ft 486 kts 213°
2026-05-05 09:29 8.51883 106.49387 35775 ft 486 kts 211°
2026-05-05 09:30 8.46550 106.46063 35775 ft 485 kts 211°
2026-05-05 09:30 8.40792 106.42486 35774 ft 485 kts 211°
2026-05-05 09:31 8.35041 106.38915 35775 ft 485 kts 211°
2026-05-05 09:31 8.29291 106.35348 35775 ft 485 kts 211°
2026-05-05 09:32 8.23565 106.31799 35775 ft 486 kts 211°
2026-05-05 09:32 8.17792 106.28223 35775 ft 486 kts 211°
2026-05-05 09:33 8.12025 106.24652 35775 ft 486 kts 211°
2026-05-05 09:33 8.06254 106.21079 35775 ft 486 kts 211°
2026-05-05 09:34 8.00510 106.17524 35774 ft 486 kts 211°
2026-05-05 09:34 7.94736 106.13952 35774 ft 486 kts 211°
2026-05-05 09:35 7.89006 106.10408 35774 ft 486 kts 211°
2026-05-05 09:35 7.80349 106.05056 35774 ft 486 kts 211°
2026-05-05 09:36 7.74581 106.01492 35774 ft 486 kts 211°
2026-05-05 09:36 7.68841 105.97946 35773 ft 486 kts 211°
2026-05-05 09:37 7.63078 105.94387 35773 ft 485 kts 211°
2026-05-05 09:37 7.57340 105.90844 35773 ft 485 kts 211°
2026-05-05 09:38 7.51572 105.87284 35772 ft 485 kts 211°
2026-05-05 09:38 7.45804 105.83725 35774 ft 485 kts 211°
2026-05-05 09:39 7.40051 105.80177 35779 ft 485 kts 211°
2026-05-05 09:39 7.34832 105.76959 35771 ft 485 kts 211°
2026-05-05 09:40 7.29015 105.73373 35769 ft 483 kts 211°
2026-05-05 09:40 7.23277 105.69833 35783 ft 484 kts 211°
2026-05-05 09:41 7.17521 105.66287 35786 ft 484 kts 211°
2026-05-05 09:41 7.11801 105.62765 35785 ft 484 kts 211°
2026-05-05 09:42 7.06046 105.59222 35784 ft 483 kts 211°
2026-05-05 09:42 7.00339 105.55711 35784 ft 483 kts 210°
2026-05-05 09:43 6.94439 105.52453 35784 ft 483 kts 206°
2026-05-05 09:43 6.88398 105.49488 35783 ft 482 kts 205°
2026-05-05 09:44 6.82404 105.46514 35782 ft 482 kts 205°
2026-05-05 09:44 6.76408 105.43490 35781 ft 482 kts 206°
2026-05-05 09:45 6.70410 105.40449 35781 ft 482 kts 206°
2026-05-05 09:45 6.64422 105.37405 35780 ft 482 kts 206°
2026-05-05 09:46 6.58464 105.34375 35780 ft 482 kts 206°
2026-05-05 09:46 6.52484 105.31335 35779 ft 482 kts 206°
2026-05-05 09:47 6.46494 105.28292 35773 ft 482 kts 206°
2026-05-05 09:47 6.40505 105.25250 35772 ft 481 kts 206°
2026-05-05 09:48 6.34524 105.22213 35772 ft 481 kts 206°
2026-05-05 09:48 6.28591 105.19201 35772 ft 481 kts 206°
2026-05-05 09:49 6.22603 105.16162 35771 ft 481 kts 206°
2026-05-05 09:49 6.17152 105.13397 35772 ft 481 kts 206°
2026-05-05 09:50 6.11169 105.10361 35764 ft 481 kts 206°
2026-05-05 09:50 6.05230 105.07349 35763 ft 481 kts 206°
2026-05-05 09:51 5.99258 105.04321 35763 ft 481 kts 206°
2026-05-05 09:51 5.93279 105.01290 35762 ft 480 kts 206°
2026-05-05 09:52 5.87300 104.98260 35763 ft 480 kts 206°
2026-05-05 09:52 5.81331 104.95235 35762 ft 480 kts 206°
2026-05-05 09:53 5.75394 104.92228 35762 ft 480 kts 206°
2026-05-05 09:53 5.69408 104.89197 35761 ft 480 kts 206°
2026-05-05 09:54 5.63438 104.86174 35761 ft 480 kts 206°
2026-05-05 09:54 5.57460 104.83148 35762 ft 480 kts 206°
2026-05-05 09:55 5.51530 104.80147 35761 ft 480 kts 206°
2026-05-05 09:55 5.45558 104.77125 35761 ft 480 kts 206°
2026-05-05 09:56 5.39579 104.74101 35761 ft 480 kts 206°
2026-05-05 09:56 5.33608 104.71081 35759 ft 480 kts 206°
2026-05-05 09:57 5.27636 104.68062 35760 ft 480 kts 206°
2026-05-05 09:57 5.21701 104.65061 35760 ft 480 kts 206°
2026-05-05 09:58 5.15727 104.62041 35759 ft 480 kts 206°
2026-05-05 09:58 5.09751 104.59019 35759 ft 481 kts 206°
2026-05-05 09:59 5.03799 104.56012 35759 ft 480 kts 206°
2026-05-05 09:59 4.97821 104.52993 35759 ft 480 kts 206°
2026-05-05 10:00 4.91829 104.49967 35760 ft 481 kts 205°
2026-05-05 10:00 4.85609 104.47715 35761 ft 479 kts 189°
2026-05-05 10:01 4.82286 104.47487 35763 ft 477 kts 176°
2026-05-05 10:01 4.80094 104.47711 35765 ft 477 kts 171°
2026-05-05 10:01 4.72524 104.49162 35761 ft 475 kts 169°
2026-05-05 10:02 4.67085 104.50025 35761 ft 476 kts 171°
2026-05-05 10:02 4.60500 104.50856 35761 ft 476 kts 172°
2026-05-05 10:03 4.53913 104.51671 35762 ft 476 kts 172°
2026-05-05 10:03 4.47371 104.52494 35762 ft 476 kts 172°
2026-05-05 10:04 4.40786 104.53325 35759 ft 476 kts 172°
2026-05-05 10:04 4.34200 104.54155 35759 ft 476 kts 172°
2026-05-05 10:05 4.27613 104.54986 35759 ft 476 kts 172°
2026-05-05 10:05 4.21068 104.55811 35759 ft 476 kts 172°
2026-05-05 10:06 4.14473 104.56504 35759 ft 476 kts 174°
2026-05-05 10:06 4.07898 104.57108 35759 ft 476 kts 173°
2026-05-05 10:07 4.01300 104.57746 35759 ft 476 kts 173°
2026-05-05 10:07 3.94702 104.58391 35759 ft 476 kts 173°
2026-05-05 10:08 3.88097 104.59037 35759 ft 476 kts 173°
2026-05-05 10:08 3.81535 104.59679 35759 ft 476 kts 173°
2026-05-05 10:09 3.74931 104.60326 35763 ft 476 kts 173°
2026-05-05 10:09 3.68313 104.60975 35772 ft 476 kts 173°
2026-05-05 10:10 3.61754 104.61619 35774 ft 477 kts 173°
2026-05-05 10:10 3.55140 104.62268 35774 ft 477 kts 173°
2026-05-05 10:11 3.48540 104.62916 35774 ft 477 kts 173°